Station ACYN4 - 8534720 - Atlantic City, NJ Image indicating link to RSS feed of recent meteorological observations for station ACYN4


Conditions at ACYN4 as of
(11:00 am EDT)
1500 GMT on 07/15/2024:
     

Click on the graph icon in the table below to see a time series plot of the last five days of that observation.

5-day plot - Atmospheric Pressure Atmospheric Pressure (PRES):29.87 in
5-day plot - Pressure Tendency Pressure Tendency (PTDY):-0.01 in ( Falling )
5-day plot - Air Temperature Air Temperature (ATMP): 80.2 °F
5-day plot - Water Temperature Water Temperature (WTMP): 61.9 °F
NOS Water Level Observation Network Water Level
Previous observations
TIME
(EDT)
5-day plot - Wind Direction
WDIR
 
5-day plot - Wind Speed
WSPD
kts
5-day plot - Wind Gust
GST
kts
5-day plot - Wave Height
WVHT
ft
5-day plot - Dominant Wave Period
DPD
sec
5-day plot - Average Wave Period
APD
sec
5-day plot - Mean Wave Direction
MWD
 
5-day plot - Atmospheric Pressure
PRES
in
5-day plot - Pressure Tendency
PTDY
in
5-day plot - Air Temperature
ATMP
°F
5-day plot - Water Temperature
WTMP
°F
5-day plot - Dew Point
DEWP
°F
5-day plot - Salinity
SAL
psu
5-day plot - Visibility
VIS
nmi
5-day plot - Tide (above MLLW)
TIDE
ft
2024-07-15 10:54 am-------29.87- 80.4 61.9----
2024-07-15 10:48 am-------29.87- 80.4 61.9----
2024-07-15 10:42 am-------29.87- 80.6 61.9----
2024-07-15 10:36 am-------29.87- 79.2 61.7----
2024-07-15 10:30 am-------29.87- 79.7 61.7----
2024-07-15 10:24 am-------29.87- 77.5 61.7----
2024-07-15 10:18 am-------29.87- 78.1 61.7----
2024-07-15 10:12 am-------29.87- 79.9 61.7----
2024-07-15 10:06 am-------29.88- 79.9 61.7----
2024-07-15 10:00 am-------29.88+0.00 79.2 61.7----
2024-07-15 09:54 am-------29.88- 79.3 61.7----
2024-07-15 09:48 am-------29.88- 79.3 61.7----
2024-07-15 09:42 am-------29.88- 79.9 61.7----
2024-07-15 09:36 am-------29.88- 79.2 61.7----
2024-07-15 09:30 am-------29.88- 78.8 61.9----
2024-07-15 09:24 am-------29.88- 78.4 61.9----
2024-07-15 09:18 am-------29.88- 78.8 61.9----
2024-07-15 09:12 am-------29.88- 79.2 61.9----
2024-07-15 09:06 am-------29.88- 78.3 62.1----
2024-07-15 09:00 am-------29.88+0.01 79.0 62.1----
2024-07-15 08:54 am-------29.89- 77.5 62.1----
2024-07-15 08:48 am-------29.88- 77.0 62.1----
2024-07-15 08:42 am-------29.88- 76.8 62.1----
2024-07-15 08:36 am-------29.88- 76.5 62.1----
2024-07-15 08:30 am-------29.88- 76.3 62.2----
2024-07-15 08:24 am-------29.89- 76.8 62.2----
2024-07-15 08:18 am-------29.88- 77.7 62.2----
2024-07-15 08:12 am-------29.88- 78.1 62.2----
2024-07-15 08:06 am-------29.88- 78.4 62.2----
2024-07-15 08:00 am-------29.88+0.00 78.8 62.2----
2024-07-15 07:54 am-------29.88- 78.6 62.2----
2024-07-15 07:48 am-------29.88- 78.3 62.2----
2024-07-15 07:42 am-------29.88- 77.5 62.2----
2024-07-15 07:36 am-------29.88- 77.0 62.2----
2024-07-15 07:30 am-------29.88- 76.3 62.2----
2024-07-15 07:24 am-------29.88- 75.6 62.2----
2024-07-15 07:18 am-------29.88- 74.5 62.2----
2024-07-15 07:12 am-------29.88- 72.9 62.2----
2024-07-15 07:06 am-------29.88- 72.0 62.2----
2024-07-15 07:00 am-------29.88+0.01 71.2 62.2----
2024-07-15 06:54 am-------29.88- 70.9 62.2----
2024-07-15 06:48 am-------29.88- 70.5 62.2----
2024-07-15 06:42 am-------29.88- 70.2 62.2----
2024-07-15 06:36 am-------29.88- 70.2 62.2----
2024-07-15 06:30 am-------29.88- 70.0 62.2----
2024-07-15 06:24 am-------29.87- 70.2 62.2----
2024-07-15 06:18 am-------29.87- 70.0 62.2----
2024-07-15 06:12 am-------29.88- 69.6 62.2----
2024-07-15 06:06 am-------29.87- 69.6 62.2----
2024-07-15 06:00 am-------29.87+0.00 69.6 62.4----
2024-07-15 05:54 am-------29.87- 69.6 62.4----
2024-07-15 05:48 am-------29.87- 69.6 62.4----
2024-07-15 05:42 am-------29.88- 69.6 62.4----
2024-07-15 05:36 am-------29.88- 69.8 62.4----
2024-07-15 05:30 am-------29.88- 69.8 62.4----
2024-07-15 05:24 am-------29.88- 69.8 62.4----
2024-07-15 05:18 am-------29.88- 69.8 62.2----
2024-07-15 05:12 am-------29.88- 69.8 62.4----
2024-07-15 05:06 am-------29.88- 70.0 62.4----
2024-07-15 05:00 am-------29.88-0.01 70.0 62.4----
2024-07-15 04:54 am-------29.88- 70.0 62.4----
2024-07-15 04:48 am-------29.88- 70.0 62.4----
2024-07-15 04:42 am-------29.88- 70.0 62.4----
2024-07-15 04:36 am-------29.88- 70.2 62.4----
2024-07-15 04:30 am-------29.88- 70.3 62.4----
2024-07-15 04:24 am-------29.87- 70.3 62.2----
2024-07-15 04:18 am-------29.87- 70.3 62.2----
2024-07-15 04:12 am-------29.87- 70.3 62.2----
2024-07-15 04:06 am-------29.87- 70.5 62.1----
2024-07-15 04:00 am-------29.87-0.04 70.7 62.1----
2024-07-15 03:54 am-------29.87- 70.7 61.9----
2024-07-15 03:48 am-------29.87- 70.7 61.9----
2024-07-15 03:42 am-------29.87- 70.9 61.7----
2024-07-15 03:36 am-------29.87- 70.9 61.7----
2024-07-15 03:30 am-------29.87- 70.7 61.7----
2024-07-15 03:24 am-------29.87- 70.7 61.7----
2024-07-15 03:18 am-------29.87- 70.9 61.5----
2024-07-15 03:12 am-------29.87- 70.9 61.5----
2024-07-15 03:06 am-------29.87- 70.9 61.5----
2024-07-15 03:00 am-------29.87-0.04 70.9 61.5----
2024-07-15 02:54 am-------29.88- 70.7 61.5----
2024-07-15 02:48 am-------29.88- 70.7 61.5----
2024-07-15 02:42 am-------29.88- 70.9 61.5----
2024-07-15 02:36 am-------29.88- 71.1 61.5----
2024-07-15 02:30 am-------29.88- 71.2 61.5----
2024-07-15 02:24 am-------29.89- 71.4 61.5----
2024-07-15 02:18 am-------29.89- 71.4 61.5----
2024-07-15 02:12 am-------29.89- 71.6 61.5----
2024-07-15 02:06 am-------29.89- 71.6 61.5----
2024-07-15 02:00 am-------29.89-0.03 71.8 61.5----
2024-07-15 01:54 am-------29.89- 71.8 61.5----
2024-07-15 01:48 am-------29.89-- 61.5----
2024-07-15 01:42 am-------29.89-- 61.5----
2024-07-15 01:36 am-------29.90-- 61.5----
2024-07-15 01:30 am-------29.90- 72.1 61.5----
2024-07-15 01:24 am-------29.90- 72.1 61.5----
2024-07-15 01:18 am-------29.90- 72.1 61.5----
2024-07-15 01:12 am-------29.90- 72.1 61.5----
2024-07-15 01:06 am-------29.90- 72.1 61.5----
2024-07-15 01:00 am-------29.90-0.03 72.3 61.5----
2024-07-15 12:54 am-------29.91- 72.1 61.5----
2024-07-15 12:48 am-------29.91- 72.1 61.5----
2024-07-15 12:42 am-------29.91- 71.8 61.3----
2024-07-15 12:36 am-------29.91- 71.8 61.3----
2024-07-15 12:30 am-------29.91-- 61.3----
2024-07-15 12:24 am-------29.91-- 61.3----
2024-07-15 12:18 am-------29.91- 72.0 61.3----
2024-07-15 12:12 am-------29.91- 72.0 61.3----
2024-07-15 12:06 am-------29.92- 72.1 61.3----
2024-07-15 12:00 am-------29.92+0.00 72.3 61.3----
2024-07-14 11:54 pm-------29.92- 72.5 61.3----
2024-07-14 11:48 pm-------29.92- 72.5 61.3----
2024-07-14 11:42 pm-------29.92- 72.5 61.3----
2024-07-14 11:36 pm-------29.92- 72.1 61.3----
2024-07-14 11:30 pm-------29.92- 72.0 61.2----
2024-07-14 11:24 pm-------29.92- 72.0 61.2----
2024-07-14 11:18 pm-------29.92- 71.8 61.2----
2024-07-14 11:12 pm-------29.92- 71.8 61.2----
2024-07-14 11:06 pm-------29.92- 72.0 61.0----
2024-07-14 11:00 pm-------29.92+0.00 71.8-----
2024-07-14 10:54 pm-------29.92- 71.8-----
2024-07-14 10:48 pm-------29.92- 72.0 60.8----
2024-07-14 10:42 pm-------29.92- 72.0 60.8----
2024-07-14 10:36 pm-------29.92- 72.0 60.8----
2024-07-14 10:30 pm-------29.92- 72.0 60.8----
2024-07-14 10:24 pm-------29.93- 72.1 60.6----
2024-07-14 10:18 pm-------29.93- 72.1 60.6----
2024-07-14 10:12 pm-------29.93- 72.0 60.6----
2024-07-14 10:06 pm-------29.93- 72.1 60.6----
2024-07-14 10:00 pm-------29.93+0.02 72.3 60.4----
2024-07-14 09:54 pm-------29.93- 72.3 60.4----
2024-07-14 09:48 pm-------29.94- 72.3 60.4----
2024-07-14 09:42 pm-------29.94- 72.3 60.3----
2024-07-14 09:36 pm-------29.93- 72.5 60.3----
2024-07-14 09:30 pm-------29.93- 72.3 60.3----
2024-07-14 09:24 pm-------29.93- 72.1 60.3----
2024-07-14 09:18 pm-------29.93-- 60.3----
2024-07-14 09:12 pm-------29.93-- 60.3----
2024-07-14 09:06 pm-------29.92-- 60.3----
2024-07-14 09:00 pm-------29.92-0.01 71.8 60.3----
2024-07-14 08:54 pm-------29.92- 71.6 60.3----
2024-07-14 08:48 pm-------29.92-- 60.3----
2024-07-14 08:42 pm-------29.93-- 60.4----
2024-07-14 08:36 pm-------29.92-- 60.4----
2024-07-14 08:30 pm-------29.92- 71.4 60.4----
2024-07-14 08:24 pm-------29.92- 71.6 60.4----
2024-07-14 08:18 pm-------29.93-- 60.6----
2024-07-14 08:12 pm-------29.93-- 60.6----
2024-07-14 08:06 pm-------29.93-- 60.8----
2024-07-14 08:00 pm-------29.93-0.02- 60.8----
2024-07-14 07:54 pm-------29.92-- 61.0----
2024-07-14 07:48 pm-------29.92- 72.0 61.0----
2024-07-14 07:42 pm-------29.92- 72.1 61.2----
2024-07-14 07:36 pm-------29.92- 72.0 61.2----
2024-07-14 07:30 pm-------29.92-- 61.3----
2024-07-14 07:24 pm-------29.92-- 61.5----
2024-07-14 07:00 pm-------29.92-0.02 72.0 62.1----
2024-07-14 06:54 pm-------29.92- 72.0 62.2----
2024-07-14 06:48 pm-------29.92- 71.8 62.4----
2024-07-14 06:42 pm-------29.92- 71.8 62.8----
2024-07-14 06:36 pm-------29.93- 72.0 63.0----
2024-07-14 06:30 pm-------29.93- 72.1 63.1----
2024-07-14 06:24 pm-------29.93- 72.5 63.5----
2024-07-14 06:18 pm-------29.93- 72.5 63.7----
2024-07-14 06:12 pm-------29.93- 72.3 63.9----
2024-07-14 06:06 pm-------29.94- 72.3 64.2----
2024-07-14 06:00 pm-------29.94-0.02- 64.4----
2024-07-14 05:54 pm-------29.94-- 64.6----
2024-07-14 05:48 pm-------29.94- 72.1 64.9----
2024-07-14 05:42 pm-------29.95- 72.3 65.1----
2024-07-14 05:36 pm-------29.95- 72.3 65.5----
2024-07-14 05:30 pm-------29.95-- 65.7----
2024-07-14 05:24 pm-------29.95-- 65.7----
2024-07-14 05:18 pm-------29.95- 73.8 65.8----
2024-07-14 05:12 pm-------29.95- 74.1 65.7----
2024-07-14 05:06 pm-------29.95- 73.8 65.7----
2024-07-14 05:00 pm-------29.94-0.03 73.9 65.7----
2024-07-14 04:54 pm-------29.94- 73.9 65.5----
2024-07-14 04:48 pm-------29.94- 74.5 65.5----
2024-07-14 04:42 pm-------29.94- 74.1 65.3----
2024-07-14 04:36 pm-------29.94- 73.0 65.1----
2024-07-14 04:30 pm-------29.94- 72.5 65.1----
2024-07-14 04:24 pm-------29.94- 72.5 64.9----
2024-07-14 04:18 pm-------29.94-- 64.8----
2024-07-14 04:12 pm-------29.94-- 64.6----
2024-07-14 04:06 pm-------29.94-- 64.4----
2024-07-14 04:00 pm-------29.94-- 64.2----
2024-07-14 03:54 pm-------29.94-- 64.0----
2024-07-14 03:48 pm-------29.94- 72.1 63.9----
2024-07-14 03:42 pm-------29.94- 72.7 63.7----
2024-07-14 03:36 pm-------29.95- 73.0 63.5----
2024-07-14 03:30 pm-------29.94-- 63.3----
2024-07-14 03:24 pm-------29.95-- 63.1----
2024-07-14 03:18 pm-------29.95- 75.2 63.0----
2024-07-14 03:12 pm-------29.95- 74.5 62.8----
2024-07-14 03:06 pm-------29.96- 73.9 62.8----
2024-07-14 03:00 pm-------29.96-0.06 75.6 62.8----
2024-07-14 02:54 pm-------29.96- 76.6 62.8----
2024-07-14 02:48 pm-------29.96- 76.6 62.8----
2024-07-14 02:42 pm-------29.96- 76.6 63.0----
2024-07-14 02:36 pm-------29.96- 76.5 63.0----
2024-07-14 02:30 pm-------29.96-- 63.0----
2024-07-14 02:24 pm-------29.96-- 63.0----
2024-07-14 02:18 pm-------29.96-------
2024-07-14 02:12 pm-------29.97-------
2024-07-14 02:06 pm-------29.97-------
2024-07-14 02:00 pm-------29.97-0.04 75.7 62.6----
2024-07-14 01:54 pm-------29.98- 74.8 62.4----
2024-07-14 01:48 pm-------29.98-- 62.1----
2024-07-14 01:42 pm-------29.98-- 61.9----
2024-07-14 01:36 pm-------29.98-- 61.7----
2024-07-14 01:30 pm-------29.98-- 61.5----
2024-07-14 01:24 pm-------29.98-- 61.3----
2024-07-14 01:18 pm-------29.99- 75.9 61.0----
2024-07-14 01:12 pm-------29.99- 75.9 60.8----
2024-07-14 01:06 pm-------29.99- 75.4 60.6----
2024-07-14 01:00 pm--------- 75.2 60.4----
2024-07-14 12:54 pm--------- 75.4 60.4----
2024-07-14 12:48 pm-------30.00- 74.8 60.4----
2024-07-14 12:42 pm-------30.00- 74.5 60.4----
2024-07-14 12:36 pm-------30.01- 74.1 60.4----
2024-07-14 12:30 pm-------30.01- 74.3 60.4----
2024-07-14 12:24 pm-------30.01- 74.7 60.4----
2024-07-14 12:18 pm-------30.01- 76.5 60.4----
2024-07-14 12:12 pm-------30.01- 77.5 60.4----
2024-07-14 12:06 pm-------30.01- 77.7 60.4----
2024-07-14 12:00 pm-------30.01+0.01 79.3 60.4----
2024-07-14 11:54 am-------30.02- 78.8 60.4----
2024-07-14 11:48 am-------30.02-- 60.6----
2024-07-14 11:42 am-------30.02-- 60.6----
2024-07-14 11:36 am-------30.02-- 60.6----
2024-07-14 11:30 am-------30.02- 76.6 60.4----
2024-07-14 11:24 am-------30.02- 76.6 60.4----
2024-07-14 11:18 am-------30.02- 76.1 60.4----
2024-07-14 11:12 am-------30.02- 75.7 60.3----
2024-07-14 11:06 am-------30.02- 74.7 60.3----
2024-07-14 11:00 am-------30.02+0.01 72.3 60.3----
2024-07-14 10:54 am-------30.02- 73.9 60.3----